Wind_Speed
49 46 45 46 43 41 41 41 39 35 31 30 28 25 25 25 23 24 26 24 23 22 20 19 19 17 16 15 13 14 16 17 18 17 15 21 35 37 33 31 30 28 27 27 28 27 27 27 25 26 26 26 27 26 26 25 24 23 22 22 21 19 19
48 47 45 47 45 42 44 43 40 38 35 33 29 24 24 25 23 24 25 24 23 23 22 21 20 19 16 15 14 14 16 18 17 16 14 16 26 35 35 32 30 29 28 28 28 28 27 26 26 26 27 27 27 26 25 24 23 23 22 21 20 19 19
45 47 46 46 47 46 46 45 42 42 39 35 33 30 27 26 25 25 25 25 25 24 23 22 20 19 17 14 14 15 16 18 17 15 15 16 22 32 37 34 31 30 28 28 28 28 28 27 27 27 26 26 25 25 24 24 23 22 21 19 19 19 19
43 45 47 47 48 48 47 45 45 45 42 38 37 34 31 30 27 26 27 27 26 25 24 22 19 18 16 14 14 15 15 17 16 14 14 15 20 34 39 34 31 29 28 28 29 29 29 29 28 27 26 25 24 23 23 23 22 21 20 19 18 19 19
45 44 46 46 46 47 46 46 46 45 43 41 40 37 35 36 32 29 28 26 26 24 20 20 19 18 17 15 16 16 15 16 14 12 11 11 17 32 38 33 30 30 29 29 29 30 30 30 29 27 26 25 23 23 23 22 22 21 20 19 18 18 19
42 43 44 44 46 46 45 45 45 44 43 43 42 39 38 39 36 33 29 25 24 23 20 21 21 20 19 17 17 17 15 15 13 11 10 8 12 23 31 31 30 30 30 30 30 31 31 30 29 28 26 25 23 22 22 22 21 20 19 19 18 18 19
36 43 45 43 45 46 45 44 43 43 43 42 42 40 39 38 38 36 32 28 26 22 21 22 22 22 22 19 17 17 16 15 13 11 9 9 11 16 23 31 33 31 31 32 32 33 33 31 30 29 27 26 24 23 22 21 21 21 20 19 19 19 19
37 42 43 40 42 44 43 42 42 43 43 42 40 38 38 39 39 36 31 29 28 23 21 23 23 23 23 20 18 18 17 15 14 13 10 9 10 12 18 27 37 39 36 34 34 34 33 32 32 31 29 28 26 24 23 22 22 22 22 21 21 20 20
38 38 38 39 41 42 42 43 44 45 43 42 41 40 39 39 38 36 32 30 28 23 22 24 25 23 24 22 20 18 16 15 14 14 12 10 11 11 12 20 38 48 42 37 38 38 36 34 33 32 31 30 28 26 25 24 24 23 22 22 22 21 19
36 36 37 40 40 42 44 45 44 44 42 41 42 41 41 40 37 36 34 32 29 24 22 25 26 26 26 24 22 19 15 14 14 12 12 10 10 10 9 12 28 43 42 40 41 40 37 35 33 33 32 31 29 28 27 26 24 23 23 22 22 21 19
31 33 37 39 40 41 44 44 42 41 41 42 41 40 41 41 39 35 33 32 30 25 23 24 27 28 28 25 23 20 15 14 15 12 11 11 9 10 9 9 17 28 33 36 40 41 39 37 36 37 35 32 31 30 28 27 24 23 24 23 22 21 21
28 28 31 34 37 39 39 41 41 40 40 40 39 39 40 41 39 34 32 33 31 28 25 25 26 27 27 26 24 20 14 17 18 15 13 12 11 11 10 9 11 16 19 22 27 32 34 35 39 41 39 35 35 34 31 28 26 25 24 24 23 22 23
29 27 27 29 33 37 37 37 38 39 38 38 39 39 38 38 36 31 30 31 32 32 30 27 27 26 24 26 25 21 16 18 19 19 16 14 14 14 11 10 12 13 13 14 16 18 20 21 26 34 41 41 37 35 34 31 29 28 26 25 25 25 25
29 28 26 27 30 35 36 35 36 37 38 38 39 39 37 37 35 32 29 28 30 33 33 30 30 28 25 26 27 25 22 20 20 19 18 17 18 17 16 15 15 14 15 16 16 14 15 15 13 18 33 43 41 36 34 33 30 30 29 28 28 28 28
28 28 28 28 29 32 34 33 34 35 37 38 38 38 37 37 37 35 32 31 30 31 32 31 32 31 28 25 26 28 28 25 23 21 20 21 22 21 20 19 17 16 17 18 17 15 14 14 12 12 17 32 39 36 34 34 32 30 31 30 30 30 30
28 28 29 30 31 32 32 31 31 33 35 36 37 37 37 37 37 35 35 36 35 32 30 30 30 30 30 27 23 23 25 27 28 26 24 25 25 23 21 20 18 18 18 18 18 17 15 15 15 14 11 15 23 26 28 31 32 31 31 32 32 32 32
28 28 30 31 31 31 31 29 30 31 33 35 36 36 36 36 35 35 35 37 36 33 31 30 30 29 29 27 24 21 20 22 26 28 29 29 28 25 22 20 20 20 19 18 18 19 20 19 18 18 16 14 14 15 17 20 23 25 25 25 26 26 27
29 29 31 31 31 31 31 31 30 30 32 34 35 35 36 35 34 34 35 35 34 33 32 31 31 30 30 28 26 25 23 22 23 26 29 31 31 28 24 22 22 22 21 19 19 19 21 21 21 20 20 20 18 16 15 15 17 19 19 20 20 20 21
31 32 33 32 33 34 33 31 30 30 30 31 32 33 35 36 35 34 34 33 33 33 32 31 31 31 31 31 30 30 29 27 24 25 26 29 30 28 25 23 22 22 22 21 21 22 22 22 22 22 22 23 22 21 20 19 18 19 19 19 19 19 20
29 33 36 36 35 35 35 33 31 30 29 30 30 31 32 34 34 34 34 33 33 33 33 33 33 31 31 31 31 32 32 29 27 25 25 26 28 27 25 23 22 21 22 22 23 23 23 23 22 23 23 24 24 24 24 24 23 22 22 21 21 21 21
27 28 35 38 35 33 36 36 34 32 31 30 30 30 30 32 33 33 33 33 33 33 33 33 34 33 33 33 33 33 33 31 29 28 26 27 27 27 27 26 25 23 22 22 23 23 24 23 22 22 22 23 25 26 26 26 26 26 26 25 24 24 23
26 25 28 33 34 33 35 37 37 36 34 32 31 30 29 30 31 32 32 32 32 32 32 32 32 33 34 36 36 36 34 33 33 32 31 30 29 30 30 30 29 27 25 24 24 24 24 24 23 23 22 23 25 26 26 26 28 28 28 28 27 27 26
23 23 22 24 27 29 33 36 37 36 36 36 35 33 31 30 30 30 31 31 31 31 31 32 32 32 34 37 38 37 36 36 36 36 35 34 34 34 35 34 33 32 29 27 26 26 26 26 26 26 25 25 26 26 26 27 30 31 31 30 29 28 28
18 20 19 21 22 22 25 31 34 35 35 35 36 35 34 33 31 30 30 31 31 31 31 31 32 33 34 36 37 38 38 39 39 38 38 38 38 38 38 38 38 36 34 32 30 29 28 28 29 29 29 29 29 28 29 30 31 31 32 32 31 30 30
14 15 16 18 20 19 18 21 24 27 30 32 34 36 36 35 34 32 31 30 30 32 32 32 32 33 34 35 36 38 40 41 40 39 39 40 40 41 41 42 41 41 39 37 34 33 31 31 31 31 31 31 31 31 32 33 32 32 33 34 33 32 32
10 12 14 15 16 16 16 17 17 19 23 27 31 33 33 34 34 34 34 33 32 31 32 33 34 35 35 36 36 36 37 38 38 37 38 41 41 41 42 44 45 44 43 42 38 37 36 34 34 33 33 32 33 33 33 33 33 32 33 34 34 33 33
9 11 13 13 12 12 14 15 16 18 20 23 26 27 27 28 30 30 31 33 34 35 35 35 36 37 37 37 37 37 37 38 37 37 38 40 41 40 39 41 43 42 44 46 43 39 38 38 37 36 35 34 34 34 34 34 34 33 33 34 34 34 34
10 11 11 10 9 11 12 14 15 17 18 20 22 24 25 26 28 29 30 31 32 34 37 39 40 42 42 41 41 40 40 39 38 39 39 41 44 43 41 41 40 37 38 43 45 41 40 40 39 38 38 37 36 36 36 36 36 36 35 35 35 35 34
10 10 9 8 9 10 10 11 12 14 15 16 18 19 21 23 26 30 32 33 33 33 34 35 37 41 45 46 45 44 43 42 42 42 42 43 45 46 45 43 44 42 39 39 42 43 41 41 41 41 40 40 39 39 38 37 37 37 37 37 37 37 36
10 9 9 9 9 8 9 9 10 11 12 14 15 16 18 20 22 25 29 32 34 35 35 35 34 35 38 42 44 45 46 46 45 45 45 44 44 46 46 44 45 47 44 40 40 43 43 43 44 44 43 43 42 41 41 40 40 39 39 39 39 39 39
9 9 9 8 8 8 8 8 9 10 11 13 14 15 16 18 19 21 24 26 29 31 34 36 36 36 36 37 38 41 43 44 44 44 44 44 43 44 46 46 46 47 46 43 41 42 44 45 46 46 46 45 45 44 43 42 42 42 41 41 41 41 41
9 9 9 9 8 8 9 9 10 10 11 13 14 15 16 18 19 20 21 23 25 27 29 32 34 36 37 38 38 39 41 42 43 44 44 44 44 44 45 46 46 46 48 48 45 43 43 46 47 48 47 47 46 45 44 43 44 44 44 44 43 43 43
11 11 10 10 10 10 11 11 11 12 13 14 15 17 18 19 19 20 21 22 23 25 26 28 31 34 37 39 40 41 42 43 44 46 46 46 46 46 46 47 47 46 47 49 48 46 45 45 46 47 46 46 45 45 45 45 45 47 47 47 47 46 46
15 14 14 14 14 14 13 13 14 14 16 17 18 19 20 21 21 22 22 23 24 25 27 28 29 32 34 37 39 42 44 45 46 48 48 49 49 48 49 50 50 49 49 50 50 50 49 47 47 47 48 48 49 49 49 49 49 49 50 50 51 51 50
18 18 17 18 17 17 16 16 16 17 18 19 20 21 22 23 24 24 24 25 25 26 28 29 30 31 33 34 37 39 42 44 46 48 49 50 51 51 51 51 52 51 51 52 52 52 51 50 49 49 50 51 52 52 53 53 52 52 53 53 53 54 54
20 20 20 20 20 19 19 19 20 20 21 22 23 23 24 25 26 26 27 27 27 28 28 29 31 33 34 35 36 38 40 42 44 46 48 49 50 52 52 53 53 53 53 53 54 54 53 52 51 51 51 51 51 51 51 52 52 53 53 54 54 55 55
22 22 22 23 24 23 23 23 24 24 24 25 25 26 27 28 28 29 29 29 30 30 30 31 31 33 34 36 37 39 40 41 43 44 46 47 48 50 51 52 53 54 54 54 55 56 56 55 54 54 53 53 52 52 52 52 52 52 52 52 53 54 54
Wind_Direction
213 211 215 217 216 219 220 223 223 220 220 217 212 211 210 212 219 222 225 230 236 238 239 244 245 245 247 243 245 249 247 252 249 251 260 229 213 213 213 208 206 204 199 197 197 198 198 197 198 202 206 210 214 216 217 219 219 219 220 220 219 218 218
214 211 215 217 216 218 220 220 223 223 222 219 215 215 217 218 221 225 226 228 234 238 240 243 243 240 242 239 239 247 248 250 251 247 249 239 223 218 215 210 207 205 201 198 200 201 201 200 199 201 205 209 213 216 219 221 223 223 224 224 223 222 223
215 212 213 217 216 218 219 219 221 223 223 223 220 219 221 222 225 230 232 232 237 242 241 237 235 234 236 238 237 243 248 249 253 253 248 245 234 221 215 210 207 206 203 199 201 204 204 204 204 204 205 208 212 215 218 221 224 226 226 228 228 227 227
215 213 212 215 216 217 219 219 220 221 221 224 225 224 226 229 231 235 238 240 242 244 241 233 228 229 231 235 238 239 244 248 251 255 253 251 233 216 211 207 205 207 206 203 203 205 207 208 208 208 207 209 211 214 216 219 223 225 225 225 228 228 228
214 215 212 214 217 218 219 219 221 222 221 223 226 225 226 229 232 234 235 237 238 237 233 226 223 227 229 232 237 236 239 246 251 252 254 256 230 213 207 204 204 206 207 206 206 207 209 210 210 210 211 210 212 214 215 218 221 224 224 223 225 227 228
215 218 214 213 217 218 218 220 222 224 222 223 227 227 227 229 230 233 231 229 233 230 219 215 219 224 228 230 234 234 235 241 246 248 247 247 231 219 213 208 206 207 208 208 209 209 210 211 210 211 212 212 213 215 215 217 219 221 222 222 223 225 228
215 219 215 212 216 217 217 218 221 225 225 225 226 228 231 232 230 232 231 227 230 225 210 210 215 221 227 230 232 232 232 235 240 244 244 242 237 232 228 220 212 209 210 209 211 212 211 211 212 212 213 212 213 214 215 216 218 218 217 218 219 221 225
215 219 217 215 217 217 217 218 220 222 222 223 224 227 233 234 230 230 230 229 230 222 209 211 216 220 226 228 230 231 230 230 237 242 242 247 250 246 242 230 217 211 211 211 213 214 211 211 213 214 215 215 213 213 213 215 217 217 215 214 215 217 219
217 219 218 217 217 216 216 217 218 219 219 219 220 223 227 231 230 228 228 231 231 221 210 215 219 223 227 226 223 225 229 227 230 240 242 246 254 252 254 238 218 212 211 211 213 215 212 211 214 215 216 217 216 214 212 215 218 220 219 217 218 219 220
216 218 218 218 216 216 216 216 217 218 218 219 219 222 227 231 233 230 226 228 232 225 213 216 223 227 230 228 216 209 218 222 219 229 236 237 244 246 254 239 217 213 215 216 217 217 212 210 215 219 220 219 220 220 218 217 217 220 223 223 222 223 223
211 214 217 218 217 218 219 218 218 218 219 220 220 221 226 230 232 230 226 226 231 230 219 217 226 233 237 230 210 196 205 211 204 209 218 221 228 232 236 233 217 216 221 223 222 222 218 214 213 218 221 221 222 224 224 222 219 219 223 225 226 228 229
211 209 213 217 218 220 221 220 219 219 219 220 221 221 224 227 229 231 233 230 230 232 225 220 226 238 246 235 205 188 204 214 201 195 200 209 220 225 230 235 225 219 222 224 222 222 223 221 218 218 219 221 222 222 223 225 224 223 226 228 231 234 236
214 209 206 210 215 218 220 220 219 219 219 219 221 222 223 225 224 226 232 232 231 233 231 225 225 232 245 243 219 196 204 218 210 199 196 204 216 221 224 233 235 231 232 233 227 224 226 228 227 223 220 220 221 220 221 225 227 226 228 230 232 235 238
210 210 206 206 212 215 217 219 219 218 218 219 221 222 223 225 224 222 226 228 230 233 232 229 229 230 237 246 242 229 222 223 219 213 209 211 215 218 221 231 244 249 250 246 237 235 236 233 239 241 228 221 221 221 221 223 225 227 230 232 234 236 238
204 205 208 209 212 214 215 217 219 218 218 219 221 223 225 226 227 227 228 229 230 234 234 232 233 236 237 240 248 249 246 240 231 227 226 223 224 229 229 234 248 258 264 264 252 242 242 241 256 275 243 221 220 223 225 226 227 229 231 234 236 238 240
201 201 205 209 211 214 214 216 218 219 219 220 221 223 225 227 228 228 229 231 231 233 236 235 234 237 239 239 241 247 254 253 246 241 237 232 236 245 242 240 249 255 263 272 266 256 256 261 269 278 267 230 223 227 230 230 231 232 233 235 236 239 241
199 200 203 206 209 211 213 214 216 218 219 221 222 224 226 228 229 229 229 232 233 233 235 237 237 236 239 241 239 236 242 249 250 248 244 241 246 255 254 251 254 256 256 261 264 264 264 267 270 269 269 262 249 243 239 234 233 234 233 234 236 237 240
196 199 202 205 206 207 208 211 215 217 219 222 224 225 228 230 230 231 232 233 234 234 235 237 239 240 240 241 241 238 236 239 244 247 247 247 251 256 258 254 251 251 252 250 250 254 257 260 262 263 264 265 262 260 257 249 243 242 240 239 239 240 240
195 196 199 203 207 208 208 209 213 216 219 223 226 228 230 233 234 235 235 235 235 235 234 235 239 241 243 243 244 245 244 244 246 248 248 249 250 252 252 251 247 245 246 246 245 244 245 248 250 252 254 256 258 260 259 255 252 250 249 248 246 244 243
203 197 195 200 207 210 209 209 212 216 220 223 227 229 232 235 237 238 239 239 238 237 235 235 236 238 241 244 245 246 248 250 250 250 249 248 249 250 249 248 246 243 241 241 243 244 242 241 241 242 244 246 250 253 253 252 250 250 251 251 249 247 246
216 208 198 198 204 207 207 209 211 214 219 223 227 230 234 236 238 240 241 242 242 242 240 239 238 236 238 241 243 246 249 249 248 249 249 249 249 251 251 250 249 247 243 240 240 241 242 241 238 238 239 240 242 245 246 246 246 247 249 250 249 248 247
220 223 211 203 202 203 206 209 212 213 215 220 225 228 231 236 239 241 243 244 244 244 244 243 241 240 240 240 241 245 248 247 247 247 248 250 251 252 253 253 251 249 246 241 238 238 239 239 238 237 237 238 239 241 244 245 246 246 247 248 250 250 249
217 226 227 220 213 207 206 210 214 215 214 216 221 224 227 231 236 240 243 244 244 244 244 243 243 243 242 241 241 243 245 246 247 248 248 248 250 252 254 254 252 251 248 244 239 237 236 236 236 236 237 238 239 239 240 243 243 242 243 245 247 249 249
217 225 233 235 232 222 213 211 214 217 217 217 218 220 223 225 227 233 238 241 243 243 242 242 244 241 237 237 239 239 240 241 243 246 248 249 250 252 253 254 253 252 250 246 241 237 235 234 234 236 237 238 240 239 238 240 241 240 240 241 243 245 247
218 225 233 237 237 235 228 222 219 218 219 220 220 220 222 223 223 226 231 235 240 242 242 242 242 239 236 237 238 236 237 239 239 241 244 246 248 250 251 252 254 253 251 249 245 240 238 236 235 235 236 238 241 241 240 241 241 240 241 241 242 243 246
215 220 228 234 235 235 234 233 231 228 226 226 227 227 226 224 222 224 226 228 231 236 241 242 241 239 239 240 240 238 238 240 241 243 243 241 242 244 245 247 249 249 249 248 246 242 239 238 237 236 236 238 241 242 243 243 242 242 242 242 242 243 245
210 214 223 228 229 228 228 228 230 233 236 236 235 236 237 234 231 231 231 230 228 229 233 238 241 241 238 237 237 237 237 238 242 245 245 242 242 244 246 246 245 245 246 245 243 241 240 239 239 239 237 238 239 241 244 245 246 245 244 244 244 245 246
209 214 220 223 218 216 220 223 226 231 238 241 241 242 244 245 244 243 243 242 239 235 234 235 239 242 241 240 240 240 239 240 243 245 245 245 246 249 252 251 247 249 250 243 237 237 239 239 240 241 240 240 239 240 242 245 247 248 248 247 247 247 247
204 209 213 214 213 214 219 224 229 233 238 241 243 243 244 245 246 247 248 248 248 247 244 242 241 243 244 243 243 242 243 244 246 247 248 249 250 251 252 251 249 251 256 248 236 234 238 239 240 242 242 243 243 242 243 245 247 250 250 250 249 249 249
192 196 200 204 209 215 220 225 230 237 242 246 247 248 248 247 246 247 248 249 250 251 251 251 251 250 248 246 243 242 243 244 246 248 249 250 251 252 252 252 251 252 255 252 241 236 237 240 241 241 242 243 245 245 246 247 248 250 251 251 251 250 250
191 195 199 204 209 215 222 229 233 237 242 247 250 251 252 251 249 248 248 248 249 251 251 252 254 254 254 253 250 247 247 246 247 248 249 249 251 252 252 253 252 251 251 251 245 238 238 240 241 241 242 243 245 247 248 248 249 250 250 251 251 251 250
204 206 207 209 216 225 233 240 246 249 250 252 253 255 255 254 253 252 251 250 249 249 250 250 251 252 252 253 253 253 253 253 252 252 253 253 253 253 252 251 251 249 248 248 246 242 239 239 240 242 243 244 245 246 247 247 247 248 249 249 250 251 250
224 223 224 228 234 241 246 250 255 259 261 262 262 262 261 261 259 257 256 254 252 250 250 248 248 248 249 249 250 251 252 253 253 254 255 255 254 253 252 251 250 249 247 247 246 243 240 238 239 241 242 243 244 245 247 247 247 247 247 248 248 249 250
238 238 239 243 248 251 255 259 261 263 266 267 267 267 266 266 266 264 262 260 257 254 253 251 249 248 247 248 248 249 249 250 250 251 252 252 253 252 252 252 252 250 249 248 247 245 243 241 241 241 242 243 245 246 248 249 248 247 247 248 248 248 249
243 243 242 244 248 251 255 259 263 266 269 269 269 269 269 268 268 269 268 266 263 260 257 256 254 252 250 249 248 248 249 249 249 250 250 249 250 250 251 251 252 252 251 250 249 248 247 246 245 244 244 244 246 247 248 249 249 248 248 249 249 249 249
247 246 245 244 246 249 253 258 263 266 268 270 270 269 270 269 269 269 269 269 268 266 263 261 259 257 255 253 251 250 249 250 250 250 250 250 249 249 249 249 250 250 250 250 250 250 250 249 249 248 247 247 247 247 248 248 249 249 249 249 249 250 250
252 252 251 251 251 253 257 261 264 266 267 270 271 270 269 269 269 269 270 269 269 268 267 266 264 262 260 258 256 254 252 251 251 251 251 250 250 250 249 249 249 249 249 249 250 251 251 251 251 251 250 250 249 249 249 249 249 249 250 250 250 250 250
Height
5840 5846 5850 5852 5856 5860 5862 5864 5868 5872 5875 5877 5880 5882 5885 5886 5888 5890 5892 5896 5898 5898 5900 5901 5902 5904 5904 5906 5907 5908 5908 5908 5908 5909 5910 5911 5914 5916 5918 5920 5922 5924 5926 5927 5928 5929 5930 5930 5932 5934 5936 5938 5938 5940 5942 5942 5944 5946 5947 5948 5950 5952 5953
5838 5844 5847 5848 5854 5856 5858 5862 5866 5870 5872 5874 5878 5880 5882 5884 5886 5888 5891 5894 5896 5897 5898 5899 5900 5902 5903 5904 5906 5906 5906 5906 5906 5908 5908 5910 5912 5915 5917 5919 5920 5922 5924 5926 5927 5928 5929 5930 5930 5932 5934 5935 5937 5938 5940 5942 5942 5944 5945 5946 5948 5950 5951
5836 5841 5844 5846 5850 5852 5856 5860 5864 5866 5870 5873 5876 5878 5880 5882 5885 5887 5890 5892 5894 5896 5896 5898 5899 5900 5902 5903 5904 5904 5904 5904 5904 5906 5907 5908 5909 5911 5914 5916 5918 5921 5922 5924 5926 5927 5928 5928 5929 5930 5932 5934 5936 5938 5939 5940 5942 5942 5944 5946 5947 5948 5950
5834 5837 5841 5844 5847 5850 5854 5857 5860 5862 5867 5870 5873 5876 5879 5881 5884 5886 5888 5891 5893 5894 5894 5896 5898 5899 5900 5902 5902 5902 5902 5902 5903 5904 5905 5906 5906 5907 5910 5914 5917 5920 5922 5923 5924 5926 5927 5928 5928 5930 5932 5933 5934 5936 5938 5939 5940 5941 5942 5944 5946 5946 5948
5831 5834 5838 5843 5846 5848 5852 5854 5858 5860 5865 5868 5870 5873 5876 5878 5881 5884 5887 5890 5891 5891 5892 5894 5896 5897 5898 5900 5901 5901 5901 5901 5902 5903 5904 5903 5904 5905 5908 5912 5915 5918 5920 5922 5923 5924 5926 5926 5928 5930 5930 5932 5934 5935 5936 5938 5938 5940 5942 5942 5944 5945 5946
5830 5832 5836 5841 5843 5846 5850 5853 5856 5860 5864 5866 5868 5871 5873 5876 5878 5880 5884 5888 5888 5888 5892 5892 5894 5896 5896 5898 5900 5900 5900 5900 5901 5902 5902 5903 5904 5906 5908 5910 5913 5916 5918 5920 5921 5922 5924 5926 5928 5928 5930 5931 5932 5934 5934 5936 5937 5938 5940 5941 5942 5943 5944
5828 5828 5832 5837 5840 5843 5847 5851 5854 5858 5861 5864 5868 5870 5872 5874 5876 5878 5882 5884 5884 5887 5890 5891 5892 5894 5895 5896 5898 5898 5898 5900 5900 5901 5902 5904 5904 5906 5907 5908 5910 5913 5915 5917 5918 5920 5922 5924 5926 5926 5928 5930 5930 5931 5932 5934 5935 5936 5938 5938 5940 5940 5942
5824 5826 5830 5834 5837 5840 5845 5848 5852 5854 5858 5862 5866 5870 5871 5870 5873 5876 5880 5882 5883 5886 5888 5889 5890 5892 5894 5895 5896 5896 5898 5898 5899 5900 5902 5903 5904 5904 5904 5905 5908 5910 5912 5914 5916 5918 5919 5922 5923 5924 5926 5927 5928 5929 5930 5932 5932 5934 5935 5936 5936 5938 5939
5823 5825 5828 5830 5833 5838 5842 5845 5848 5850 5855 5859 5862 5866 5866 5866 5870 5874 5877 5879 5880 5884 5886 5887 5888 5890 5891 5893 5894 5895 5896 5896 5898 5898 5900 5902 5902 5902 5901 5901 5902 5906 5908 5911 5913 5914 5916 5918 5920 5922 5922 5924 5925 5926 5928 5928 5930 5932 5934 5934 5936 5936 5938
5822 5823 5824 5827 5830 5834 5838 5840 5844 5848 5853 5856 5859 5862 5864 5865 5868 5871 5874 5876 5878 5880 5884 5884 5886 5887 5888 5890 5892 5892 5894 5894 5896 5897 5898 5900 5900 5899 5899 5898 5900 5904 5906 5909 5910 5912 5914 5916 5918 5919 5920 5921 5922 5924 5924 5925 5928 5930 5932 5933 5934 5936 5938
5818 5820 5822 5826 5830 5832 5836 5839 5843 5847 5850 5853 5857 5860 5862 5864 5866 5868 5872 5874 5876 5878 5881 5882 5883 5884 5886 5888 5889 5890 5892 5893 5894 5895 5896 5897 5898 5898 5898 5899 5901 5904 5906 5907 5908 5910 5912 5913 5914 5916 5918 5920 5920 5921 5922 5924 5926 5928 5930 5931 5932 5934 5936
5816 5818 5822 5826 5829 5832 5834 5838 5842 5844 5848 5851 5854 5857 5859 5860 5864 5866 5869 5872 5873 5876 5878 5880 5882 5881 5882 5886 5886 5886 5888 5890 5892 5892 5894 5895 5896 5896 5898 5899 5900 5902 5904 5904 5906 5907 5908 5910 5911 5912 5916 5918 5918 5918 5920 5922 5924 5926 5927 5929 5931 5932 5933
5815 5818 5821 5824 5826 5830 5832 5836 5840 5842 5846 5848 5850 5853 5856 5858 5861 5864 5865 5868 5870 5872 5874 5878 5880 5880 5880 5882 5884 5884 5886 5888 5889 5890 5892 5892 5894 5895 5896 5898 5898 5900 5901 5902 5902 5903 5904 5905 5907 5910 5912 5914 5914 5916 5918 5920 5922 5924 5924 5926 5928 5930 5931
5814 5817 5820 5822 5824 5828 5830 5834 5836 5840 5842 5845 5847 5850 5852 5854 5858 5860 5862 5864 5866 5868 5871 5874 5876 5878 5879 5880 5880 5882 5884 5886 5887 5888 5890 5890 5892 5894 5895 5896 5898 5898 5898 5898 5900 5900 5900 5902 5904 5906 5906 5908 5911 5912 5914 5917 5919 5920 5922 5924 5926 5927 5928
5812 5816 5819 5821 5823 5826 5828 5831 5834 5837 5840 5842 5844 5847 5849 5851 5854 5857 5860 5862 5864 5865 5868 5872 5874 5876 5878 5878 5879 5880 5882 5884 5886 5886 5888 5888 5889 5891 5892 5894 5896 5897 5897 5897 5898 5898 5898 5899 5901 5902 5902 5903 5907 5910 5912 5914 5916 5918 5920 5921 5922 5924 5925
5810 5814 5816 5819 5822 5824 5827 5830 5832 5834 5837 5840 5842 5844 5846 5848 5851 5854 5857 5858 5860 5863 5866 5868 5872 5873 5874 5876 5878 5878 5880 5881 5883 5884 5885 5885 5886 5889 5890 5891 5892 5894 5895 5896 5896 5897 5898 5898 5899 5900 5900 5901 5904 5906 5908 5911 5913 5914 5916 5918 5918 5920 5922
5809 5812 5814 5818 5821 5823 5825 5827 5830 5832 5834 5837 5839 5841 5843 5845 5848 5851 5853 5855 5858 5861 5864 5866 5868 5870 5872 5874 5876 5877 5878 5878 5880 5882 5882 5882 5884 5886 5888 5889 5890 5892 5893 5894 5896 5896 5896 5897 5898 5900 5900 5901 5902 5904 5906 5908 5910 5911 5913 5914 5916 5916 5918
5806 5810 5813 5816 5818 5820 5822 5824 5827 5830 5832 5834 5836 5838 5840 5843 5846 5848 5850 5853 5856 5858 5861 5863 5865 5868 5870 5870 5872 5874 5875 5876 5878 5878 5880 5880 5880 5882 5885 5887 5888 5890 5891 5892 5894 5894 5895 5896 5896 5898 5899 5900 5902 5903 5904 5906 5906 5908 5909 5910 5912 5914 5914
5804 5808 5812 5814 5816 5816 5819 5822 5824 5827 5830 5832 5834 5836 5838 5840 5843 5845 5848 5850 5852 5855 5858 5860 5862 5864 5866 5868 5869 5870 5872 5873 5874 5876 5877 5878 5878 5880 5882 5884 5886 5888 5888 5890 5892 5892 5893 5894 5894 5896 5898 5898 5900 5901 5902 5904 5904 5905 5906 5908 5908 5910 5912
5804 5806 5808 5811 5812 5814 5818 5820 5823 5826 5828 5830 5832 5834 5836 5838 5840 5842 5844 5847 5850 5852 5854 5857 5860 5862 5864 5864 5866 5866 5868 5870 5870 5872 5873 5874 5876 5877 5878 5880 5882 5884 5886 5887 5888 5889 5890 5892 5892 5894 5895 5896 5898 5899 5900 5901 5902 5903 5904 5905 5906 5908 5909
5802 5804 5806 5808 5810 5813 5816 5818 5820 5823 5826 5828 5830 5832 5834 5836 5838 5840 5842 5844 5846 5848 5851 5854 5856 5858 5860 5861 5862 5862 5864 5866 5868 5868 5870 5870 5872 5874 5875 5876 5878 5880 5882 5884 5884 5886 5887 5888 5890 5891 5892 5894 5896 5896 5897 5898 5900 5901 5902 5902 5904 5906 5907
5801 5802 5804 5806 5808 5810 5812 5815 5818 5820 5822 5825 5827 5830 5832 5833 5835 5836 5838 5841 5843 5845 5848 5850 5852 5855 5856 5857 5858 5859 5861 5862 5864 5865 5866 5868 5869 5870 5871 5872 5874 5876 5878 5880 5881 5882 5884 5885 5886 5888 5890 5892 5892 5894 5894 5896 5897 5898 5899 5900 5901 5902 5904
5800 5802 5803 5804 5806 5808 5810 5813 5815 5818 5820 5822 5824 5826 5828 5830 5832 5834 5836 5838 5840 5842 5844 5846 5848 5851 5852 5852 5853 5856 5857 5858 5860 5861 5862 5864 5865 5866 5867 5868 5870 5872 5874 5876 5877 5878 5880 5881 5883 5884 5886 5888 5888 5890 5892 5893 5894 5895 5896 5897 5898 5900 5901
5798 5800 5801 5802 5804 5806 5808 5810 5812 5814 5817 5819 5822 5822 5824 5826 5830 5832 5833 5835 5836 5838 5840 5842 5844 5846 5847 5847 5848 5850 5851 5852 5854 5856 5858 5859 5860 5862 5863 5864 5866 5868 5869 5870 5872 5874 5876 5877 5879 5880 5882 5884 5884 5886 5888 5890 5890 5892 5893 5894 5895 5896 5898
5796 5798 5799 5800 5802 5804 5806 5808 5810 5812 5814 5816 5817 5818 5820 5824 5826 5828 5830 5832 5834 5835 5836 5838 5840 5842 5842 5844 5844 5844 5846 5847 5848 5850 5852 5854 5856 5857 5858 5860 5861 5863 5865 5866 5868 5870 5872 5874 5875 5876 5878 5880 5881 5882 5884 5885 5886 5888 5890 5891 5892 5894 5894
5794 5796 5797 5798 5800 5801 5803 5805 5807 5809 5810 5812 5814 5816 5818 5820 5822 5824 5826 5828 5830 5832 5834 5835 5836 5838 5838 5838 5840 5842 5843 5844 5846 5847 5849 5850 5850 5852 5854 5855 5856 5858 5860 5862 5864 5866 5867 5869 5870 5872 5874 5876 5877 5878 5880 5880 5882 5884 5886 5887 5888 5890 5890
5792 5794 5795 5796 5798 5800 5800 5802 5804 5806 5807 5809 5812 5814 5815 5816 5818 5820 5822 5823 5825 5828 5829 5831 5832 5833 5834 5834 5836 5838 5839 5840 5842 5844 5844 5846 5846 5848 5849 5850 5852 5854 5856 5857 5859 5861 5862 5864 5866 5868 5870 5872 5874 5875 5876 5877 5878 5880 5882 5883 5884 5886 5886
5791 5792 5794 5795 5796 5798 5799 5800 5802 5803 5804 5806 5808 5810 5812 5813 5814 5816 5818 5819 5821 5822 5824 5826 5828 5828 5829 5830 5832 5834 5835 5836 5838 5839 5840 5842 5843 5844 5845 5846 5848 5849 5850 5852 5854 5856 5858 5860 5861 5863 5865 5867 5869 5871 5872 5873 5874 5876 5878 5880 5880 5882 5882
5790 5791 5792 5794 5795 5796 5797 5798 5800 5800 5802 5804 5805 5806 5808 5809 5810 5812 5814 5815 5816 5818 5820 5821 5822 5823 5824 5826 5827 5828 5830 5832 5833 5834 5836 5838 5838 5840 5841 5842 5843 5844 5846 5848 5850 5852 5854 5855 5857 5858 5860 5862 5864 5866 5868 5869 5870 5872 5873 5874 5876 5878 5879
5790 5790 5792 5792 5794 5794 5796 5796 5798 5799 5800 5801 5802 5803 5804 5806 5806 5808 5810 5810 5812 5814 5815 5816 5817 5818 5819 5820 5822 5823 5824 5826 5828 5830 5831 5832 5834 5834 5836 5838 5838 5840 5842 5844 5845 5846 5848 5850 5852 5854 5856 5857 5859 5860 5862 5864 5866 5866 5868 5870 5871 5873 5874
5789 5790 5790 5792 5792 5793 5794 5795 5796 5797 5798 5798 5800 5800 5802 5802 5804 5804 5805 5806 5808 5808 5810 5811 5812 5813 5814 5816 5816 5818 5819 5820 5822 5824 5825 5826 5828 5830 5830 5832 5834 5834 5836 5838 5840 5841 5843 5845 5846 5848 5850 5852 5854 5856 5857 5859 5860 5861 5862 5864 5865 5867 5868
5788 5789 5790 5790 5791 5792 5792 5793 5794 5794 5796 5796 5797 5798 5798 5800 5800 5801 5802 5802 5804 5804 5806 5806 5808 5808 5810 5810 5811 5812 5814 5815 5816 5817 5818 5820 5822 5824 5825 5826 5828 5828 5830 5832 5834 5836 5838 5840 5841 5843 5844 5846 5848 5850 5852 5853 5854 5856 5857 5858 5860 5861 5862
5788 5788 5788 5789 5790 5790 5790 5792 5792 5792 5793 5794 5794 5795 5796 5796 5797 5798 5798 5799 5800 5800 5801 5802 5803 5804 5804 5805 5806 5807 5808 5810 5810 5810 5812 5814 5816 5817 5818 5820 5821 5822 5824 5826 5827 5829 5832 5834 5835 5837 5838 5840 5842 5844 5845 5847 5848 5850 5852 5853 5854 5856 5857
5786 5786 5787 5788 5788 5788 5789 5790 5790 5790 5791 5791 5792 5792 5792 5792 5793 5794 5794 5795 5796 5796 5797 5798 5798 5799 5800 5800 5801 5802 5802 5804 5804 5805 5806 5808 5809 5810 5812 5814 5814 5816 5818 5819 5820 5822 5824 5826 5828 5830 5832 5834 5835 5836 5838 5840 5842 5844 5845 5846 5848 5850 5851
5783 5784 5785 5785 5786 5786 5786 5787 5788 5788 5788 5788 5788 5788 5788 5789 5789 5790 5790 5790 5791 5792 5792 5792 5793 5794 5794 5796 5796 5796 5797 5798 5798 5799 5800 5802 5802 5804 5806 5807 5808 5809 5810 5812 5814 5816 5818 5820 5822 5823 5824 5826 5828 5829 5830 5832 5834 5836 5838 5840 5841 5843 5844
5780 5781 5782 5782 5782 5783 5784 5784 5784 5784 5784 5784 5784 5784 5784 5784 5784 5785 5786 5786 5786 5786 5787 5788 5788 5788 5789 5790 5791 5792 5792 5792 5792 5793 5794 5795 5796 5797 5798 5800 5800 5802 5803 5804 5806 5808 5810 5812 5814 5816 5817 5818 5820 5822 5823 5825 5826 5828 5830 5832 5834 5836 5838
5777 5778 5778 5779 5779 5780 5780 5780 5781 5781 5781 5780 5780 5780 5780 5780 5780 5780 5780 5780 5781 5781 5782 5782 5782 5783 5784 5784 5784 5785 5786 5786 5786 5787 5788 5788 5790 5790 5791 5792 5793 5794 5796 5797 5799 5800 5802 5804 5806 5808 5809 5810 5812 5814 5816 5818 5820 5821 5822 5824 5826 5828 5830